This is the latest recevied weather packets stored in our database for station/object KJ5HMU-13. If no packets are shown the sender has not sent any weather packets the latest 1 day(s).
| Time | Temp. | Humidity | Pressure | Rain* | Wind** | Luminosity | Snow |
|---|---|---|---|---|---|---|---|
| 1778031632 | 0.56° C | 96% | 1017.8 hPa | 0 mm | 0 m/s | 2 W/m² | - |
| 1778031330 | 0.56° C | 96% | 1018.2 hPa | 0 mm | 0 m/s | 2 W/m² | - |
| 1778031027 | 0.56° C | 96% | 1017.9 hPa | 0 mm | 0 m/s | 2 W/m² | - |
| 1778030723 | 0.56° C | 96% | 1018.2 hPa | 0 mm | 0 m/s | 2 W/m² | - |
| 1778030420 | 0.56° C | 96% | 1017.9 hPa | 0 mm | 0 m/s | 2 W/m² | - |
| 1778030128 | 0.56° C | 95% | 1017.9 hPa | 0 mm | 0 m/s | 3 W/m² | - |
| 1778029814 | 0.56° C | 95% | 1017.9 hPa | 0 mm | 0 m/s | 4 W/m² | - |
| 1778029513 | 0.56° C | 95% | 1017.8 hPa | 0 mm | 0 m/s | 4 W/m² | - |
| 1778029209 | 0.56° C | 95% | 1017.7 hPa | 0 mm | 0 m/s | 3 W/m² | - |
| 1778028907 | 0.56° C | 94% | 1017.8 hPa | 0 mm | 0 m/s | 4 W/m² | - |
| 1778028602 | 0.56° C | 94% | 1017.7 hPa | 0 mm | 0 m/s | 7 W/m² | - |
| 1778028300 | 0.56° C | 94% | 1017.9 hPa | 0 mm | 0 m/s | 6 W/m² | - |
| 1778027996 | 0.56° C | 94% | 1017.9 hPa | 0 mm | 0 m/s | 7 W/m² | - |
| 1778027692 | 1.11° C | 94% | 1018.1 hPa | 0 mm | 0 m/s | 9 W/m² | - |
| 1778027389 | 1.11° C | 94% | 1017.9 hPa | 0 mm | 0 m/s | 12 W/m² | - |
| 1778027085 | 1.11° C | 94% | 1018.1 hPa | 1.27 mm | 0 m/s | 17 W/m² | - |
| 1778026780 | 1.11° C | 94% | 1017.8 hPa | 1.27 mm | 0 m/s | 28 W/m² | - |
| 1778026478 | 1.11° C | 94% | 1017.9 hPa | 0 mm | 0.45 m/s, 20° | 36 W/m² | - |
| 1778026175 | 1.11° C | 94% | 1017.8 hPa | 0 mm | 0.45 m/s, 28° | 46 W/m² | - |
| 1778025872 | 1.11° C | 94% | 1017.9 hPa | 0 mm | 0 m/s | 38 W/m² | - |
| 1778025569 | 1.11° C | 93% | 1017.8 hPa | 0 mm | 0 m/s | 22 W/m² | - |
| 1778025267 | 1.11° C | 93% | 1017.7 hPa | 0 mm | 0.89 m/s, 17° | 37 W/m² | - |
| 1778024964 | 1.11° C | 93% | 1017.5 hPa | 0 mm | 0.45 m/s, 21° | 45 W/m² | - |
| 1778024661 | 1.67° C | 91% | 1017.9 hPa | 0 mm | 0.45 m/s, 21° | 54 W/m² | - |
| 1778024358 | 1.67° C | 90% | 1018.1 hPa | 0 mm | 0.89 m/s, 358° | 14 W/m² | - |
* Rain latest hour (hover to see other rain measurements)
** Current wind speed in m/s (hover to see current wind gust speed)